Regional Weather Roundup
Issued by NWS Newport/Morehead, NC

Home | Current Version | Previous Version | Text Only | Print | Product List | Glossary On
Versions: 1 2 3 4 5 6 7 8 9 10 11 12 13 14 15 16 17 18 19 20 21 22 23 24 25 26 27 28 29 30 31 32 33 34 35 36 37 38 39 40 41 42 43 44 45 46 47 48 49 50
000
ASUS42 KMHX 032013
RWRMHX
WEATHER ROUNDUP FOR EASTERN NORTH CAROLINA
NATIONAL WEATHER SERVICE NEWPORT/MOREHEAD CITY NC
400 PM EDT TUE MAY 03 2016

NOTE: "FAIR" INDICATES FEW OR NO CLOUDS BELOW 12,000 FEET
WITH NO SIGNIFICANT WEATHER AND/OR OBSTRUCTIONS TO VISIBILITY

NCZ015>017-031-032-045>047-102-103-032100-
NORTH COAST

CITY           SKY/WX    TMP DP  RH WIND       PRES   REMARKS
EDENTON        CLOUDY    74  68  82 S8        29.77F
ELIZABETH CITY CLOUDY    72  65  78 SW12      29.76F
KITTY HAWK     CLOUDY    73  66  79 SW3       29.77F
MANTEO         NOT AVBL

$$

NCZ045>047-081-094-103-104-032100-
CENTRAL COAST

CITY           SKY/WX    TMP DP  RH WIND       PRES   REMARKS
FRISCO         CLOUDY    68  66  93 SW12      29.80S
SWANQUARTER    NOT AVBL

$$

NCZ095-097-098-100-101-032100-
SOUTHERN COAST

CITY           SKY/WX    TMP DP  RH WIND       PRES   REMARKS
BEAUFORT       MOSUNNY   71  66  84 S15       29.79F
CEDAR ISLAND   NOT AVBL
JACKSONVILLE   PTSUNNY   76  66  71 SW10      29.77F
PINEY ISLAND   NOT AVBL
WILMINGTON     MOSUNNY   73  67  81 SE8       29.78F


$$

NCZ011>013-027>030-043-044-078>080-089-090>093-098-032100-
COASTAL PLAIN

CITY           SKY/WX    TMP DP  RH WIND       PRES   REMARKS
AHOSKIE        CLOUDY    74  67  78 CALM      29.75F
CLINTON        CLOUDY    77  70  79 CALM      29.77F
ELIZABETHTOWN  LGT RAIN  77  68  74 CALM      29.77F
GOLDSBORO      PTSUNNY   76  71  84 SW9       29.74F
GREENVILLE     CLOUDY    75  66  73 SW6       29.79F
HAVELOCK       PTSUNNY   74  66  76 SW10      29.79F
KENANSVILLE    PTSUNNY   77  65  67 CALM      29.78F
KINSTON        CLOUDY    77  66  69 SW10      29.77F
NEW BERN       CLOUDY    75  65  70 SW8       29.78F
RICHLANDS      PTSUNNY   79  68  69 SW8       29.77F
ROCKY MOUNT    PTSUNNY   76  66  71 S8        29.75F
WASHINGTON     CLOUDY    73  65  77 SW7       29.76F
WHITEVILLE     PTSUNNY   80  66  63 CALM      29.76F

$$

AMZ130-135-150-152-154-156-158-170-250-252-270-ANZ085-086-088-633-658-670-032100-
MARINE OBSERVATIONS

STATION/POSITION TIME  TEMP    WIND        PRES    WAVE   SWELL
                       AIR SEA DIR/SP/G            HT/PER HT/PER
                 (UTC) (F)     (DEG/KT/KT) (MB)    (FT/S) (FT/S)
CHESAPEAKE LIGHT 1900   64     190/ 13/ 14 1009.0
64 E VA BEACH    1950   57 55  190/  8/  8 1008.2    4/ 6   3/ 6
DUCK             1900   69 67  220/ 11/ 13 1008.2
2 E DUCK         1911      58                N/A     2/ 7
OREGON INLET     1900   70 71  210/ 12/ 14 1008.5
13E OREGON INLT  2000      62                N/A     5/ 6   3/ 6
HATTERAS CG      1900   68 69  220/ 11/ 16 1008.9
DIAMOND BUOY     1950   71 71  200/ 16/ 19 1008.8    4/ 7   2/ 7
CAPE LOOKOUT     2000   69     190/ 13/ 16 1008.5
BEAUFORT LAB     1900   68 67  200/ 10/ 12 1008.5
30 SE NEW RVR IN 1925      71                N/A     5/ 7
27 SE WRIGHTSVLE 1908   71 73  200/ 10/ 16 1036.9
5 SE WRIGHTSVLE  1908   70 70  180/  8/ 12 1010.9
225 S CAPE HAT   1950   74 74  180/ 16/ 19 1013.1    4/ 6   2/ 9
41 SE CHARLESTON 1950   75 75  200/ 16/ 17 1008.3    5/ 6   2/ 8

$$



USA.gov is the U.S. government's official web portal to all federal, state and local government web resources and services.